Location: Austin
(30.3000°N, 97.7500°W)
Time: 02:25:28
(UTC-05:00)

Cosmos 1633 Rocket - Pass Details

Date: 11 June 2024
Orbit: 604 x 619 km, 82.5° (Epoch: 21 June)

Event Time Altitude Azimuth Distance (km) Brightness Sun altitude
Rises 21:21:06 0° 7° (N) 2,886 6.9 -9.7°
Reaches altitude 10° 21:23:34 10° 18° (NNE) 1,974 5.9 -10.1°
Maximum altitude 21:27:24 30° 80° (E) 1,105 4.0 -10.8°
Enters shadow 21:30:11 16° 133° (SE) 1,614 4.5 -11.3°
